Location: Caltech
(34.1382°N, 118.1253°W)
Time: 01:48:47
(UTC-07:00)

Iridium 75 - Visible Passes

Search period start: 24 July 2016 00:00
Search period end: 03 August 2016 00:00
Orbit: 776 x 779 km, 86.4° (Epoch: 23 July)

Date Brightness Start Highest point End Pass type
(mag) Time Alt. Az. Time Alt. Az. Time Alt. Az.
24 Jul 9.0 03:26:21 10° E 03:27:09 10° ENE 03:27:56 10° ENE visible
24 Jul 6.0 05:01:57 10° S 05:07:08 70° W 05:12:20 10° N visible
25 Jul 6.5 04:28:33 10° SSE 04:33:39 60° E 04:38:47 10° N visible
26 Jul 7.7 03:55:46 10° SE 04:00:17 31° E 04:04:49 10° NNE visible
27 Jul 8.6 03:23:56 10° ESE 03:27:02 16° E 03:30:08 10° NE visible
27 Jul 6.4 05:02:18 10° SSW 05:07:17 46° W 05:12:17 10° NNW visible
28 Jul 6.0 04:29:10 14° S 04:33:44 90° WSW 04:38:58 10° N visible
29 Jul 6.9 03:56:15 15° SSE 04:00:18 46° E 04:05:16 10° NNE visible
30 Jul 8.0 03:23:20 12° SE 03:26:59 24° E 03:31:05 10° NNE visible
30 Jul 6.9 05:03:50 14° SW 05:07:28 31° W 05:12:04 10° NNW visible
31 Jul 8.7 02:51:47 10° ESE 02:53:46 12° E 02:55:46 10° NE visible
31 Jul 6.1 04:30:52 25° SSW 04:33:51 60° W 04:39:01 10° N visible
01 Aug 6.2 03:57:53 31° SSE 04:00:21 70° E 04:05:32 10° N visible
02 Aug 7.3 03:24:53 26° SE 03:26:57 35° E 03:31:40 10° NNE visible
02 Aug 7.4 05:05:24 16° WSW 05:07:43 21° W 05:11:36 10° NNW visible
